This is the latest recevied weather packets stored in our database for station/object KI5MKI. If no packets are shown the sender has not sent any weather packets the latest 10 day(s).
| Time | Temp. | Humidity | Pressure | Rain* | Wind** | Luminosity | Snow |
|---|---|---|---|---|---|---|---|
| 1777217395 | 25.56° C | 83% | 1009.8 hPa | 0 mm | - | 709 W/m² | - |
| 1777217092 | 25° C | 84% | 1009.8 hPa | 0 mm | - | 584 W/m² | - |
| 1777216788 | 25° C | 85% | 1010.1 hPa | 0 mm | - | 253 W/m² | - |
| 1777216484 | 25° C | 86% | 1009.7 hPa | 0 mm | - | 300 W/m² | - |
| 1777216179 | 24.44° C | 87% | 1009.8 hPa | 0 mm | - | 420 W/m² | - |
| 1777215878 | 24.44° C | 88% | 1009.8 hPa | 0 mm | - | 278 W/m² | - |
| 1777215575 | 23.89° C | 89% | 1009.6 hPa | 0 mm | - | 239 W/m² | - |
| 1777215271 | 23.33° C | 90% | 1009.7 hPa | 0 mm | - | 216 W/m² | - |
| 1777214967 | 23.33° C | 90% | 1009.7 hPa | 0 mm | - | 116 W/m² | - |
| 1777214667 | 23.33° C | 91% | 1009.7 hPa | 0 mm | - | 147 W/m² | - |
| 1777214362 | 23.33° C | 91% | 1009.8 hPa | 0 mm | - | 153 W/m² | - |
| 1777214061 | 23.33° C | 92% | 1009.7 hPa | 0 mm | - | 154 W/m² | - |
| 1777213755 | 22.78° C | 93% | 1009.6 hPa | 0 mm | - | 198 W/m² | - |
| 1777213452 | 22.78° C | 93% | 1009.7 hPa | 0 mm | - | 185 W/m² | - |
| 1777213149 | 22.78° C | 94% | 1009.6 hPa | 0 mm | - | 240 W/m² | - |
| 1777212846 | 22.78° C | 94% | 1009.6 hPa | 0 mm | - | 177 W/m² | - |
| 1777212543 | 22.78° C | 95% | 1009.8 hPa | 0 mm | - | 131 W/m² | - |
| 1777212241 | 22.78° C | 95% | 1009.8 hPa | 0 mm | - | 147 W/m² | - |
| 1777211937 | 22.22° C | 95% | 1009.8 hPa | 0 mm | - | 133 W/m² | - |
| 1777211636 | 22.22° C | 95% | 1010 hPa | 0 mm | - | 160 W/m² | - |
| 1777211332 | 22.22° C | 95% | 1010 hPa | 0 mm | - | 159 W/m² | - |
| 1777211028 | 22.22° C | 95% | 1010 hPa | 0 mm | - | 167 W/m² | - |
| 1777210724 | 22.22° C | 95% | 1010.2 hPa | 0 mm | - | 131 W/m² | - |
| 1777210419 | 22.22° C | 95% | 1010.2 hPa | 0 mm | - | 140 W/m² | - |
| 1777210116 | 22.22° C | 95% | 1010.3 hPa | 0 mm | - | 134 W/m² | - |
* Rain latest hour (hover to see other rain measurements)
** Current wind speed in m/s (hover to see current wind gust speed)